TimeAKDT,TemperatureF,Dew PointF,Humidity,Sea Level PressureIn,VisibilityMPH,Wind Direction,Wind SpeedMPH,Gust SpeedMPH,PrecipitationIn,Events,Conditions,WindDirDegrees,DateUTC
12:16 AM,55.4,51.8,88,30.08,10.0,Calm,Calm,-,N/A,,Overcast,0,2013-06-30 08:16:00
12:36 AM,55.4,51.8,88,30.08,10.0,Calm,Calm,-,N/A,,Overcast,0,2013-06-30 08:36:00
12:56 AM,55.4,51.8,88,30.08,10.0,Calm,Calm,-,N/A,,Overcast,0,2013-06-30 08:56:00
1:16 AM,55.4,51.8,88,30.08,10.0,SW,4.6,-,N/A,,Mostly Cloudy,220,2013-06-30 09:16:00
1:56 AM,53.6,51.8,94,30.08,10.0,Calm,Calm,-,N/A,,Scattered Clouds,0,2013-06-30 09:56:00
3:36 AM,53.6,51.8,94,30.08,10.0,Calm,Calm,-,N/A,,Partly Cloudy,0,2013-06-30 11:36:00
4:36 AM,53.6,50.0,88,30.07,10.0,SSE,3.5,-,N/A,,Mostly Cloudy,150,2013-06-30 12:36:00
4:56 AM,51.8,48.2,88,30.08,3.0,Calm,Calm,-,N/A,,Scattered Clouds,0,2013-06-30 12:56:00
6:07 AM,55.4,53.6,94,30.08,10.0,Calm,Calm,-,N/A,,Mostly Cloudy,0,2013-06-30 14:07:00
6:16 AM,-9999,-9999,N/A,30.07,10.0,Calm,Calm,-,N/A,,Mostly Cloudy,0,2013-06-30 14:16:00
6:36 AM,55.4,53.6,94,30.08,10.0,NE,4.6,-,N/A,,Mostly Cloudy,50,2013-06-30 14:36:00
7:36 AM,57.2,51.8,82,30.07,10.0,ENE,4.6,-,N/A,,Mostly Cloudy,70,2013-06-30 15:36:00
7:56 AM,57.2,51.8,82,30.07,10.0,ENE,5.8,-,N/A,,Scattered Clouds,60,2013-06-30 15:56:00
8:16 AM,55.4,51.8,88,30.07,10.0,ENE,3.5,-,N/A,,Scattered Clouds,60,2013-06-30 16:16:00
8:56 AM,60.8,51.8,72,30.06,10.0,NNE,4.6,-,N/A,,Scattered Clouds,30,2013-06-30 16:56:00
9:36 AM,60.8,53.6,77,30.05,10.0,NE,3.5,-,N/A,,Scattered Clouds,50,2013-06-30 17:36:00
10:56 AM,-9999,-9999,N/A,30.05,10.0,NE,4.6,-,N/A,,Mostly Cloudy,50,2013-06-30 18:56:00
11:16 AM,59.0,53.6,82,30.05,10.0,ENE,5.8,-,N/A,,Mostly Cloudy,60,2013-06-30 19:16:00
12:16 PM,59.0,51.8,77,30.06,10.0,ENE,4.6,-,N/A,,Mostly Cloudy,70,2013-06-30 20:16:00
12:36 PM,60.8,51.8,72,30.06,10.0,ENE,3.5,-,N/A,,Mostly Cloudy,70,2013-06-30 20:36:00
12:56 PM,60.8,51.8,72,30.06,10.0,ENE,4.6,-,N/A,,Overcast,70,2013-06-30 20:56:00
1:16 PM,60.8,51.8,72,30.06,10.0,East,4.6,-,N/A,,Overcast,80,2013-06-30 21:16:00
2:36 PM,64.4,53.6,68,30.05,10.0,ENE,4.6,-,N/A,,Overcast,60,2013-06-30 22:36:00
2:56 PM,62.6,51.8,68,30.05,10.0,ENE,3.5,-,N/A,,Overcast,60,2013-06-30 22:56:00
3:16 PM,64.4,51.8,64,30.05,10.0,NE,4.6,-,N/A,,Overcast,50,2013-06-30 23:16:00
3:36 PM,64.4,51.8,64,30.05,10.0,ENE,4.6,-,N/A,,Overcast,70,2013-06-30 23:36:00
4:16 PM,64.4,51.8,64,30.04,10.0,NE,5.8,-,N/A,,Mostly Cloudy,50,2013-07-01 00:16:00
5:56 PM,62.6,51.8,68,30.03,10.0,ENE,4.6,-,N/A,,Overcast,70,2013-07-01 01:56:00
6:36 PM,62.6,51.8,68,30.02,10.0,ENE,4.6,-,N/A,,Overcast,70,2013-07-01 02:36:00
6:56 PM,62.6,51.8,68,30.02,10.0,ENE,3.5,-,N/A,,Overcast,60,2013-07-01 02:56:00
7:16 PM,62.6,51.8,68,30.01,10.0,ENE,4.6,-,N/A,,Overcast,70,2013-07-01 03:16:00
8:16 PM,62.6,51.8,68,30.00,10.0,ENE,3.5,-,N/A,,Mostly Cloudy,60,2013-07-01 04:16:00
8:36 PM,60.8,51.8,72,30.00,10.0,East,3.5,-,N/A,,Mostly Cloudy,90,2013-07-01 04:36:00
8:56 PM,60.8,51.8,72,30.00,10.0,Calm,Calm,-,N/A,,Scattered Clouds,0,2013-07-01 04:56:00
9:56 PM,59.0,51.8,77,30.00,10.0,Calm,Calm,-,N/A,,Mostly Cloudy,0,2013-07-01 05:56:00
10:16 PM,59.0,53.6,82,30.00,10.0,Calm,Calm,-,N/A,,Overcast,0,2013-07-01 06:16:00
11:36 PM,57.2,51.8,82,30.00,10.0,Calm,Calm,-,N/A,,Overcast,0,2013-07-01 07:36:00
11:56 PM,57.2,51.8,82,29.99,10.0,Calm,Calm,-,N/A,,Overcast,0,2013-07-01 07:56:00